Regional Weather Roundup
Issued by NWS

Home | Current Version | Previous Version | Graphics & Text | Print | Product List | Glossary On
Versions: 1 2 3 4 5 6 7 8 9 10 11 12 13 14 15 16 17 18 19 20 21 22 23 24 25 26 27 28 29 30 31 32 33 34 35 36 37 38 39 40 41 42 43 44 45 46 47 48 49 50
000
ASUS45 KABQ 221910
RWRNM
WEATHER ROUNDUP FOR NEW MEXICO
NATIONAL WEATHER SERVICE ALBUQUERQUE NM
100 PM MDT FRI AUG 22 2014

NOTE: "FAIR" MEANS FEW OR NO CLOUDS BELOW 12,000 FEET AGL WITH NO
       SIGNIFICANT WEATHER OR OBSTRUCTIONS TO VISION.

      THIS PRODUCT IS RELEASED AS TWO VERSIONS.  ONE VERSION NEAR
      THE TOP OF THE HOUR CONTAINING PRELIMINARY DATA FROM ALBUQUERQUE
      AND OTHER STATIONS.  A FINAL VERSION WITH ADDITIONAL DATA IS
      ISSUED ABOUT 10 MINUTES AFTER THE HOUR.

NMZ501-503-504-510>518-222000-
NORTHWEST PLATEAU/NORTHCENTRAL MOUNTAINS

CITY           SKY/WX    TMP DP  RH WIND       PRES   REMARKS
FARMINGTON     MOSUNNY   73  53  49 E12       30.16F
LOS ALAMOS     LGT RAIN  56  55  98 NE10      30.30F
SANTA FE       LGT RAIN  61  55  81 N6        30.25F
TAOS           CLOUDY    55  48  76 SW10      30.35R
ANGEL FIRE     RAIN      55  49  80 W10       30.37F

$$
NMZ402-403-502-505>509-222000-
WESTCENTRAL MOUNTAINS/SOUTHWEST MOUNTAINS

CITY           SKY/WX    TMP DP  RH WIND       PRES   REMARKS
GALLUP         PTSUNNY   70  49  47 SW13      30.22F
SILVER CITY    PTSUNNY   73  54  49 SW6       30.21F

$$
NMZ407-409-411-412-222000-
SOUTHERN DESERTS

CITY           SKY/WX    TMP DP  RH WIND       PRES   REMARKS
LORDSBURG      FAIR      81  50  34 NW7       30.13F
DEMING         MOSUNNY   79  57  46 NE5       30.13F
LAS CRUCES     CLOUDY    73  62  68 SW5       30.17S
HOLLOMAN AFB   PTSUNNY   73  63  68 SW7       30.13F
ALAMOGORDO     PTSUNNY   73  63  68 SW8       30.15F
T OR C         PTSUNNY   73  59  61 SE6       30.15F

$$
NMZ519>523-222000-
CENTRAL VALLEYS/CENTRAL HIGHLANDS

CITY           SKY/WX    TMP DP  RH WIND       PRES   REMARKS
ALBUQUERQUE    LGT RAIN  64  58  80 N6        30.22F
DOUBLE EAGLE   RAIN      59  55  88 NE5       30.25S
MORIARTY ARPT  FAIR      66  55  67 NW8       30.25S
CLINES CORNERS CLOUDY    65  50  58 N14       30.25F
BELEN          DRIZZLE   63  58  84 NE6       30.22R
SOCORRO        FAIR      68  59  72 N3        30.19S

$$
NMZ524>526-539-540-222000-
SOUTHCENTRAL MOUNTAINS

CITY           SKY/WX    TMP DP  RH WIND       PRES   REMARKS
RUIDOSO        CLOUDY    66  52  59 SW16      30.28S

$$
NMZ527>531-222000-
NORTHEAST HIGHLANDS/NORTHEAST PLAINS

CITY           SKY/WX    TMP DP  RH WIND       PRES   REMARKS
LAS VEGAS      CLOUDY    70  51  51 SW8       30.24F
RATON          PTSUNNY   80  41  24 SE10      30.16F
CLAYTON        MOSUNNY   92  45  19 S14G25    30.07F

$$
NMZ532>537-222000-
EASTCENTRAL PLAINS

CITY           SKY/WX    TMP DP  RH WIND       PRES   REMARKS
TUCUMCARI      SUNNY     92  53  26 S14G26    30.03F
CANNON AFB     MOSUNNY   89  55  31 SW17G26   30.08F
CLOVIS AIRPORT   N/A     90  55  31 SW13G22   30.10F

$$
NMZ028-029-538-222000-
SOUTHEAST PLAINS

CITY           SKY/WX    TMP DP  RH WIND       PRES   REMARKS
ROSWELL        MOSUNNY   89  56  32 S14G22    30.04F
ARTESIA        SUNNY     91  55  29 S15G28    30.04F
CARLSBAD       SUNNY     94  55  26 S17G26    30.01F
HOBBS          MOSUNNY   90  57  33 SW12      30.08F


$$


USA.gov is the U.S. government's official web portal to all federal, state and local government web resources and services.